Regional Weather Roundup
Issued by NWS

Home | Current Version | Previous Version | Text Only | Print | Product List | Glossary On
Versions: 1 2 3 4 5 6 7 8 9 10 11 12 13 14 15 16 17 18 19 20 21 22 23 24 25 26 27 28 29 30 31 32 33 34 35 36 37 38 39 40 41 42 43 44 45 46 47 48 49 50
000
ASUS45 KSLC 292210
RWRUT

UTAH REGIONAL WEATHER ROUNDUP
NATIONAL WEATHER SERVICE SALT LAKE CITY UT
400 PM MDT FRI AUG 29 2014

UTZ001>011-023>025-292300-

NORTHERN UTAH

CITY           SKY/WX    TMP DP  RH WIND       PRES   REMARKS
HILL AFB       MOSUNNY   86  41  20 SW7       30.05F
LOGAN          SUNNY     84  44  24 CALM      30.02F
OGDEN          MOSUNNY   86  39  19 CALM      30.02F
PROVO AIRPORT  MOSUNNY   86  39  19 CALM      30.05F
SALT LAKE CITY PTSUNNY   88  37  16 CALM      29.99F
VERNAL         PTSUNNY   76  41  28 W7G18     30.12F
WENDOVER       CLOUDY    84  37  18 E3        29.99F
HEBER CITY     MOSUNNY   84  37  18 SW12      30.10F
WEST JORDAN    SUNNY     88  52  29 SE9       30.04F

$$

UTZ012>022-026-027-292300-

SOUTHERN UTAH

CITY           SKY/WX    TMP DP  RH WIND       PRES   REMARKS
BRYCE CANYON   MOSUNNY   76  33  21 CALM      30.27F
CEDAR CITY     MOSUNNY   87  26  11 CALM      30.09F
MILFORD        SUNNY     90  29  11 S7        30.03F
MOAB/CYNLANDS  SUNNY     86  34  15 MISG      30.02F
PRICE          MOSUNNY   81  35  19 SW9       30.15F
ST GEORGE      PTCLDY    97  39  13 W5        29.91F HX  92

$$

REGIONAL REPORTS     COLORADO/ARIZONA

CITY           SKY/WX    TMP DP  RH WIND       PRES   REMARKS
CRAIG, CO      SUNNY     78  43  28 W12       30.14F
GRAND JUNCTION SUNNY     82  39  21 W6        30.07F
RIFLE          MOSUNNY   76  45  33 W12       30.11F
MONTROSE       SUNNY     80  40  23 W12       30.15F
CORTEZ         SUNNY     83  40  21 N13       30.13F
PAGE, AZ       SUNNY     91  34  13 N5        30.03F
GRAND CANYON   MOSUNNY   82  34  17 VRB6      30.21F
KINGMAN        SUNNY     98  34  10 VRB5      29.95F HX  92
FLAGSTAFF      SUNNY     79  36  21 VRB5      30.24F

$$

REGIONAL REPORTS    NEVADA/IDAHO/WYOMING

CITY           SKY/WX    TMP DP  RH WIND       PRES   REMARKS
LAS VEGAS, NV  MOSUNNY  103  31   8 VRB5      29.80F HX  96
ELY            CLOUDY    85  29  13 S17G24    30.12F
ELKO           CLOUDY    87  28  12 SW6       30.01F
POCATELLO, ID  SUNNY     88  43  20 W12G23    30.00F
BURLEY         MOSUNNY   85  47  26 E3        29.96F
EVANSTON, WY   MOSUNNY   78  38  23 W15       30.20F
ROCK SPRINGS   SUNNY     74  35  24 NW10G21   30.16F

$$


USA.gov is the U.S. government's official web portal to all federal, state and local government web resources and services.